CHINASAT 6A (ZX 6A)

Last updated on Aug. 8, 2020, 5:32 a.m. UTC

1 37150U 10042A   20220.83309382 -.00000362  00000-0  00000+0 0  9996
2 37150   0.0306 167.6790 0002282 351.4069 222.6762  1.00271014 36456
UTC
Height (km)
Latitude
Longitude
Inclination
Orbital Period
UTC large
Height (km)
Speed (km/s)
/
Latitude / Longitude
Inclination (degrees)
Orbital Period (minutes)
Azimuth
Elevation
Range (km)
Doppler Factor
iOS Compass Heading
iOS Angle

Next 30 passes for location: Hong Kong

Rise time Rise Azimuth (degrees) Set time Set Azimuth (degrees) Duration Max altitude (degrees)

No matching passes for this satellites